Brooklyn Center, MN

6:13 AM CST on February 11, 2016 (GMT -0600)
Crystal

Weather History for KMIC - January, 2014

Change the Weather History Date:

Monday, January 27, 2014

  Actual Average Record
Temperature  
Mean Temperature -12 °F -  
Max Temperature -7 °F 23 °F 46 °F (2006)
Min Temperature -16 °F 8 °F -16 °F (2014)
Degree Days  
Heating Degree Days 76    
Moisture  
Dew Point -22 °F    
Average Humidity 59    
Maximum Humidity 71    
Minimum Humidity 53    
Precipitation  
Precipitation 0.00 in - - ()
Sea Level Pressure  
Sea Level Pressure 30.41 in    
Wind  
Wind Speed 14 mph (WNW)    
Max Wind Speed 21 mph    
Max Gust Speed 29 mph    
Visibility 10 miles    
Events      
Averages and records for this station are not official NWS values.
T = Trace of Precipitation, MM = Missing Value Source: NWS Daily Summary

Daily Weather History Graph

Daily Weather History Graph

Search for Another Location

Airport or City:

Trip Planner

Search our weather history database for the weather conditions in past years. The results will help you decide how hot, cold, wet, or windy it might be!

Date:

Astronomy

Jan. 27, 2014 Rise Set
Actual Time 7:38 AM CST 5:14 PM CST
Civil Twilight 7:06 AM CST 5:45 PM CST
Nautical Twilight 6:31 AM CST 6:21 PM CST
Astronomical Twilight 5:56 AM CST 6:56 PM CST
Moon 4:22 AM CST (1/27) 1:58 PM CST (1/27)
Length of Visible Light 10h 38m
Length of Day
9h 35m
Waning Crescent, 14% of the Moon is Illuminated
Jan 27
Waning Crescent
Jan 30
New
Feb 6
First Quarter
Feb 14
Full
Feb 22
Last Quarter

Hourly Weather History & Observations

Time (CST) Temp. Windchill Dew Point Humidity Pressure Visibility Wind Dir Wind Speed Gust Speed Precip Events Conditions
12:53 AM -9.9 °F -35.4 °F -20.0 °F 61% 30.17 in 9.0 mi WNW 20.7 mph 28.8 mph N/A   Clear
1:53 AM -11.0 °F -31.8 °F -22.0 °F 58% 30.21 in 10.0 mi NW 12.7 mph 24.2 mph N/A   Clear
2:53 AM -11.9 °F -33.8 °F -23.1 °F 58% 30.26 in 10.0 mi WNW 13.8 mph - N/A   Clear
3:53 AM -13.0 °F -35.2 °F -24.0 °F 58% 30.29 in 10.0 mi WNW 13.8 mph - N/A   Clear
4:53 AM -14.1 °F -34.7 °F -24.0 °F 61% 30.32 in 10.0 mi WNW 11.5 mph 20.7 mph N/A   Clear
5:53 AM -15.0 °F -36.8 °F -26.0 °F 58% 30.34 in 10.0 mi WNW 12.7 mph 19.6 mph N/A   Clear
6:53 AM -16.1 °F -38.2 °F -26.0 °F 61% 30.37 in 10.0 mi WNW 12.7 mph - N/A   Clear
7:53 AM -16.1 °F -39.1 °F -26.0 °F 61% 30.40 in 10.0 mi WNW 13.8 mph 21.9 mph N/A   Clear
8:53 AM -15.0 °F -40.7 °F -26.0 °F 58% 30.43 in 10.0 mi NW 18.4 mph 25.3 mph N/A   Clear
9:53 AM -14.1 °F -35.7 °F -24.0 °F 61% 30.45 in 10.0 mi WNW 12.7 mph - N/A   Clear
10:53 AM -13.0 °F -35.2 °F -23.1 °F 61% 30.47 in 10.0 mi NW 13.8 mph - N/A   Clear
11:53 AM -11.0 °F -32.7 °F -23.1 °F 55% 30.48 in 10.0 mi NW 13.8 mph - N/A   Clear
12:53 PM -9.0 °F -29.3 °F -22.0 °F 53% 30.48 in 10.0 mi West 12.7 mph - N/A   Clear
1:53 PM -8.0 °F -25.0 °F -20.9 °F 53% 30.47 in 10.0 mi West 9.2 mph 18.4 mph N/A   Clear
2:53 PM -7.1 °F -27.6 °F -20.0 °F 53% 30.47 in 10.0 mi West 13.8 mph - N/A   Clear
3:53 PM -8.0 °F -28.8 °F -20.0 °F 56% 30.47 in 10.0 mi West 13.8 mph - N/A   Clear
4:53 PM -8.0 °F -27.1 °F -20.0 °F 56% 30.47 in 10.0 mi West 11.5 mph - N/A   Clear
5:53 PM -9.0 °F -23.8 °F -20.0 °F 59% 30.48 in 10.0 mi West 6.9 mph - N/A   Clear
6:53 PM -9.9 °F -28.6 °F -20.9 °F 59% 30.49 in 10.0 mi West 10.4 mph - N/A   Clear
7:53 PM -11.0 °F -28.8 °F -20.9 °F 62% 30.50 in 10.0 mi West 9.2 mph - N/A   Clear
8:53 PM -11.9 °F -28.7 °F -22.0 °F 61% 30.49 in 10.0 mi West 8.1 mph - N/A   Clear
9:53 PM -13.0 °F -27.0 °F -22.0 °F 64% 30.49 in 10.0 mi West 5.8 mph - N/A   Clear
10:53 PM -13.0 °F -27.0 °F -22.0 °F 64% 30.48 in 10.0 mi WSW 5.8 mph - N/A   Clear
11:53 PM -14.1 °F -28.3 °F -20.9 °F 71% 30.47 in 10.0 mi SW 5.8 mph - N/A   Clear